sat.trackr.live / text

‹ back to catalog

STARLINK-37611

NORAD 69034 · 2026-101K

PAYLOAD ACTIVE UNKNOWN

§ Identity

Operator
Country
US
Launch date
2026-05-06
Launch site
AFWTR
Launch vehicle
Mass (kg)
RCS (m²)

Purposes: comms

External: N2YO · Heavens-Above · Gunter

§ Orbital elements

Epoch: 2026-09-20T00:33:29.664000Z

Period
93.91 min
Inclination
97.2843°
Eccentricity
0.0001857
Mean motion
15.33444540 rev/d
Perigee alt
464.3 km
Apogee alt
466.8 km
Semi-major
6,843.7 km
B*
3.3077e-4
RAAN
116.4826°
Arg perigee
86.9884°
Mean anomaly
273.1571°
Rev number
2,110

§ Raw data

STARLINK-376111 69034U 26101K   26263.02326000  .00010619  00000+0  33077-3 0  99932 69034  97.2843 116.4826 0001857  86.9884 273.1571 15.33444540 21102

JSON: /api/v1/satellites/69034 · /tle

For live sub-satellite position, see the globe view (requires WebGL).

§ Visibility from observer

Set your observer location to see the next 7 days of passes ≥ 10°. The values pass through the URL so the page stays shareable.

No JS? Fill the form by hand. The geolocation button needs JavaScript.